Location: Newark
(44.3681°N, 100.3364°W)
Time: 08:10:16
(UTC+00:00)

Vanguard 1 - Pass Details

Date: 21 February 2020
Orbit: 649 x 3833 km, 34.2° (Epoch: 05 April)

Event Time Altitude Azimuth Distance (km) Brightness Sun altitude
Rises 21:46:26 0° 273° (W) 5,350 14.5 22.8°
Reaches altitude 10° 21:53:44 10° 244° (WSW) 3,472 14.6 21.9°
Maximum altitude 21:55:51 11° 229° (SW) 3,136 15.0 21.6°
Drops below altitude 10° 21:57:44 10° 213° (SSW) 2,999 14.3 21.3°
Sets 22:02:25 0° 178° (S) 3,445 13.4 20.7°
